[[{"header":{"parameterUnit":"m.s-1","parameterCategory":1,"la1":30.2991,"la2":30.254,"lo1":-89.0895,"lo2":-89.0444,"dy":0.0017,"dx":0.0017,"nx":28,"ny":28,"refTime":"2023-09-16T09:00:00:Z","depth":0,"parameterNumber":2,"parameterNumberName":"U-component_of_WINDS"},"data":[0,0,0,0,0,0,0,0,0,0,0,0,0,0,0,0,0,0,0,0,0,0,0,0,0,0,0,0,0,0,0,0,0,0,0,0,0,0,0,0,0,0,0,0,0,0,0,0,0,0,0,0,0,0,0,0,0,0,0.0704,0.0703,0,0.0664,0.0663,0.0663,0.0637,0.0637,0.0637,0.0636,0.0597,0.0596,0.0595,0,0,0,0,0,0,0,0,0,0,0,0,0,0.076,0.0759,0.0704,0.0703,0.0703,0.0664,0.0663,0.0663,0.0637,0.0637,0.0637,0.0636,0.0597,0.0596,0.0595,0,0,0,0,0,0,0,0,0,0,0,0,0,0.073,0.0759,0.0704,0.0685,0.0683,0.0664,0.0663,0.0662,0.0637,0.0637,0.0636,0.0636,0.0597,0.0596,0.0595,0.0591,0,0,0.059,0.059,0,0,0,0,0,0,0,0,0.0731,0.0727,0.0688,0.0686,0.0684,0.0655,0.0668,0.0639,0.0637,0.0655,0.0636,0.0636,0.0616,0.0613,0.0606,0.0589,0.0587,0.059,0.0589,0.0589,0.0588,0,0,0,0,0,0,0,0.0733,0.0729,0.0688,0.0688,0.0685,0.068,0.0675,0.0663,0.0637,0.0653,0.0651,0.0647,0.0615,0.0608,0.0605,0.0587,0.059,0.0589,0.0588,0.0588,0.0567,0.0567,0,0,0,0,0,0,0.0738,0.0731,0.0689,0.0687,0.0708,0.0679,0.0674,0.0665,0.0637,0.0633,0.0647,0.0646,0.061,0.0607,0.0604,0.0599,0.0589,0.0588,0.0587,0.0566,0.0567,0.0567,0,0,0,0,0,0,0.074,0.0735,0.0691,0.0708,0.0702,0.0678,0.0668,0.0664,0.0657,0.0633,0.0628,0.0644,0.061,0.0606,0.0595,0.0597,0.0587,0.0586,0.0566,0.0567,0.0567,0.0588,0,0,0,0,0,0,0.0741,0.0735,0.0733,0.0708,0.0701,0.0682,0.0668,0.0663,0.0654,0.0652,0.0629,0.0625,0.0609,0.0597,0.0593,0.0595,0.0585,0.0566,0.0566,0.0567,0.0587,0.0589,0.0591,0,0,0,0,0,0.0743,0.074,0.0733,0.0728,0.0698,0.0682,0.0678,0.066,0.0654,0.0652,0.0637,0.0625,0.0598,0.0596,0.0592,0.0593,0.0566,0.0566,0.0567,0.0586,0.0589,0.0591,0,0,0,0,0,0,0.0766,0.0737,0.0728,0.0717,0.0702,0.0677,0.0674,0.0663,0.0649,0.0648,0.0627,0.0622,0.0614,0.0602,0.0601,0.0589,0.058,0.058,0.0597,0.0599,0.0601,0.0604,0.0584,0,0,0,0,0,0.0769,0.0758,0.0734,0.0726,0.0719,0.0698,0.069,0.0678,0.0662,0.0655,0.064,0.0625,0.0613,0.0605,0.0593,0.0586,0.0581,0.0585,0.0587,0.0588,0.0588,0.0585,0.0587,0.0569,0.0569,0.0569,0,0,0.0776,0.0759,0.0753,0.073,0.0717,0.0707,0.0693,0.0682,0.0674,0.0654,0.0643,0.0631,0.0613,0.0604,0.06,0.0595,0.0593,0.0589,0.0591,0.059,0.0586,0.0588,0.0589,0.0569,0.0569,0.0569,0,0,0.0784,0.077,0.0763,0.075,0.0731,0.0717,0.0716,0.0693,0.0685,0.0673,0.0658,0.0649,0.0629,0.0617,0.0609,0.0615,0.0604,0.0612,0.0621,0.0619,0.062,0.0621,0.0624,0.0626,0.0612,0.0612,0.0612,0,0.0796,0.0779,0.076,0.0751,0.0742,0.0724,0.0717,0.0706,0.0684,0.0678,0.0673,0.0648,0.0635,0.0624,0.0626,0.0619,0.0617,0.0614,0.0621,0.0622,0.0623,0.0626,0.0627,0.0613,0.0613,0.0613,0.0613,0,0.0794,0.0783,0.078,0.0759,0.075,0.0742,0.0723,0.0716,0.0706,0.0693,0.0683,0.0667,0.0651,0.0648,0.0637,0.0636,0.0634,0.0625,0.0616,0.0626,0.0629,0.0629,0.0614,0.0614,0.0614,0.0613,0,0,0.0813,0.0784,0.0783,0.0774,0.0753,0.0744,0.0737,0.0722,0.0716,0.0703,0.0696,0.068,0.0673,0.0663,0.0651,0.0649,0.0656,0.0641,0.064,0.0645,0.0656,0.0662,0.0663,0.0649,0.0649,0.065,0.0657,0,0.0818,0.0802,0.0787,0.0777,0.0767,0.0751,0.0744,0.0731,0.0719,0.071,0.0698,0.0687,0.0678,0.0672,0.0669,0.0656,0.0658,0.0655,0.0644,0.0644,0.0648,0.0664,0.0671,0.0679,0.0658,0.0658,0.0658,0,0.0821,0.0808,0.0797,0.0779,0.0774,0.0768,0.0754,0.0746,0.0731,0.0723,0.0714,0.0701,0.0694,0.0686,0.0676,0.0674,0.0669,0.0662,0.0662,0.066,0.0651,0.0663,0.0681,0.0682,0.0659,0.0659,0.0659,0,0.0836,0.0817,0.0808,0.0801,0.0779,0.0775,0.0766,0.0751,0.0744,0.0732,0.0728,0.0715,0.0708,0.07,0.0685,0.0681,0.0677,0.0667,0.0671,0.0671,0.067,0.067,0.0687,0.0667,0.0667,0.0667,0.0667,0,0.0843,0.0837,0.0815,0.081,0.0803,0.0787,0.0781,0.077,0.0758,0.0751,0.0736,0.073,0.0711,0.0704,0.0692,0.0686,0.0683,0.0677,0.0674,0.0678,0.0679,0.0674,0.0673,0.0667,0.0667,0.0667,0.0667,0,0.0859,0.0843,0.0833,0.0814,0.0809,0.0805,0.0789,0.0784,0.0772,0.0764,0.0761,0.0744,0.0734,0.0719,0.0704,0.0697,0.0693,0.0688,0.0698,0.0696,0.07,0.07,0.0714,0.0716,0.0694,0.0695,0.0695,0,0.0864,0.0859,0.084,0.0834,0.0825,0.0816,0.0809,0.0793,0.0787,0.0771,0.0768,0.0758,0.0748,0.0734,0.072,0.0709,0.0704,0.071,0.0702,0.0707,0.0705,0.0705,0.0705,0.0712,0.0712,0.0712,0.0712,0,0.0875,0.0868,0.0858,0.0846,0.0838,0.0828,0.0817,0.0814,0.0796,0.0789,0.0779,0.0772,0.0758,0.0748,0.0736,0.0728,0.0717,0.0715,0.0715,0.0719,0.0726,0.0723,0.0703,0.0715,0.0714,0.0714,0.0714,0.0714,0.0885,0.0881,0.0867,0.0857,0.0848,0.0839,0.0834,0.0822,0.0814,0.0801,0.0793,0.0784,0.0771,0.0754,0.0746,0.074,0.0735,0.0735,0.0735,0.0735,0.0737,0.0727,0.0737,0.0737,0.0737,0.0737,0.0737,0,0.0896,0.0887,0.0878,0.0864,0.0857,0.0848,0.0837,0.0831,0.0823,0.0813,0.0804,0.0794,0.0785,0.0771,0.0761,0.0758,0.0754,0.0756,0.0756,0.0755,0.0742,0.0743,0.0761,0.0761,0.0761,0.076,0.076,0.076,0.09,0.0893,0.0885,0.0874,0.0865,0.0856,0.0851,0.0843,0.0834,0.0823,0.0816,0.0807,0.0796,0.0785,0.0777,0.0773,0.077,0.0775,0.077,0.0758,0.0755,0.0753,0.0754,0.0774,0.0774,0.0783,0.0783,0.0783]},{"header":{"parameterUnit":"m.s-1","parameterCategory":1,"la1":30.2991,"la2":30.254,"lo1":-89.0895,"lo2":-89.0444,"dy":0.0017,"dx":0.0017,"nx":28,"ny":28,"refTime":"2023-09-16T09:00:00:Z","depth":0,"parameterNumber":3,"parameterNumberName":"V-component_of_WINDS"},"data":[0,0,0,0,0,0,0,0,0,0,0,0,0,0,0,0,0,0,0,0,0,0,0,0,0,0,0,0,0,0,0,0,0,0,0,0,0,0,0,0,0,0,0,0,0,0,0,0,0,0,0,0,0,0,0,0,0,0,-3.914,-3.9141,0,-3.9167,-3.9167,-3.9167,-3.9146,-3.9145,-3.9145,-3.9144,-3.9168,-3.9169,-3.917,0,0,0,0,0,0,0,0,0,0,0,0,0,-3.9068,-3.907,-3.914,-3.9141,-3.9141,-3.9167,-3.9167,-3.9167,-3.9146,-3.9145,-3.9144,-3.9143,-3.9167,-3.9169,-3.9171,0,0,0,0,0,0,0,0,0,0,0,0,0,-3.9098,-3.907,-3.914,-3.9134,-3.9134,-3.9166,-3.9167,-3.9167,-3.9147,-3.9145,-3.9144,-3.9143,-3.9167,-3.9169,-3.9171,-3.9211,0,0,-3.9178,-3.9178,0,0,0,0,0,0,0,0,-3.9096,-3.91,-3.9134,-3.9134,-3.9134,-3.9152,-3.915,-3.9182,-3.9147,-3.9142,-3.9144,-3.9142,-3.9163,-3.9166,-3.9173,-3.9212,-3.9213,-3.9178,-3.9179,-3.918,-3.9181,0,0,0,0,0,0,0,-3.9094,-3.9099,-3.9151,-3.9135,-3.9135,-3.9128,-3.9131,-3.9156,-3.9159,-3.9142,-3.9141,-3.9144,-3.9163,-3.9171,-3.9174,-3.9213,-3.9178,-3.918,-3.9181,-3.9182,-3.9284,-3.9285,0,0,0,0,0,0,-3.9093,-3.9097,-3.915,-3.9151,-3.9111,-3.9131,-3.9134,-3.9147,-3.9159,-3.916,-3.9145,-3.9143,-3.9168,-3.9171,-3.9175,-3.922,-3.918,-3.9182,-3.9183,-3.9282,-3.9284,-3.9285,0,0,0,0,0,0,-3.9092,-3.9098,-3.9149,-3.9124,-3.913,-3.9133,-3.9149,-3.9149,-3.9157,-3.9162,-3.9162,-3.9153,-3.9167,-3.9171,-3.9202,-3.9221,-3.9183,-3.9185,-3.9281,-3.9283,-3.9285,-3.9313,0,0,0,0,0,0,-3.909,-3.9098,-3.9114,-3.9125,-3.9132,-3.9177,-3.915,-3.915,-3.9161,-3.9159,-3.9169,-3.917,-3.9167,-3.9198,-3.9204,-3.9223,-3.9187,-3.9279,-3.9282,-3.9284,-3.9311,-3.9316,-3.9321,0,0,0,0,0,-3.9087,-3.9121,-3.9115,-3.9121,-3.9152,-3.9178,-3.9182,-3.9178,-3.9163,-3.9178,-3.9181,-3.9169,-3.9218,-3.9202,-3.9208,-3.9228,-3.9278,-3.9281,-3.9284,-3.9308,-3.9315,-3.9321,0,0,0,0,0,0,-3.9111,-3.9122,-3.9116,-3.9154,-3.9165,-3.9174,-3.9194,-3.9186,-3.9201,-3.9198,-3.9192,-3.9194,-3.9226,-3.923,-3.9211,-3.9266,-3.9245,-3.925,-3.9262,-3.9268,-3.9274,-3.9271,-3.9189,0,0,0,0,0,-3.9121,-3.9142,-3.915,-3.9183,-3.9189,-3.9191,-3.9202,-3.9198,-3.9209,-3.9214,-3.9218,-3.9229,-3.9246,-3.9258,-3.9274,-3.9312,-3.9313,-3.9328,-3.9334,-3.9338,-3.9341,-3.9359,-3.9366,-3.9296,-3.9296,-3.9296,0,0,-3.9141,-3.915,-3.9164,-3.9188,-3.9196,-3.9217,-3.9195,-3.9218,-3.9233,-3.9217,-3.9245,-3.9249,-3.926,-3.9294,-3.9309,-3.9298,-3.9361,-3.9342,-3.9345,-3.9346,-3.9363,-3.937,-3.9376,-3.9298,-3.9297,-3.9297,0,0,-3.9188,-3.9198,-3.9226,-3.9234,-3.9247,-3.9248,-3.9255,-3.9265,-3.9267,-3.9296,-3.9284,-3.9301,-3.9332,-3.934,-3.9348,-3.9397,-3.9386,-3.9403,-3.9429,-3.9446,-3.9452,-3.9457,-3.9472,-3.9478,-3.9406,-3.9406,-3.9406,0,-3.9212,-3.9243,-3.924,-3.9264,-3.9274,-3.9262,-3.9289,-3.9297,-3.9315,-3.9321,-3.931,-3.9347,-3.9354,-3.9388,-3.94,-3.9408,-3.9414,-3.9401,-3.9452,-3.9456,-3.9461,-3.9476,-3.9482,-3.9408,-3.9408,-3.9408,-3.9407,0,-3.927,-3.9292,-3.9313,-3.933,-3.9343,-3.9368,-3.9368,-3.9381,-3.9376,-3.9377,-3.9406,-3.9413,-3.943,-3.9438,-3.9434,-3.9472,-3.9465,-3.9453,-3.9431,-3.9469,-3.9483,-3.9489,-3.9411,-3.941,-3.9409,-3.9409,0,0,-3.9333,-3.9348,-3.9356,-3.9363,-3.9376,-3.9392,-3.9416,-3.9433,-3.9444,-3.9456,-3.9475,-3.9501,-3.949,-3.9499,-3.9495,-3.9511,-3.9547,-3.9496,-3.9496,-3.9504,-3.9587,-3.9594,-3.9601,-3.954,-3.9542,-3.9542,-3.9585,0,-3.9379,-3.9422,-3.9419,-3.9458,-3.9477,-3.9465,-3.9486,-3.9495,-3.9497,-3.9513,-3.9514,-3.9532,-3.9517,-3.9522,-3.9537,-3.9539,-3.9563,-3.9536,-3.9556,-3.9557,-3.9552,-3.9609,-3.9617,-3.9657,-3.9591,-3.9592,-3.9592,0,-3.9439,-3.9453,-3.9495,-3.9504,-3.9511,-3.953,-3.9545,-3.9561,-3.9571,-3.9571,-3.9581,-3.9574,-3.9596,-3.9576,-3.9606,-3.9587,-3.9595,-3.9597,-3.9599,-3.9599,-3.9576,-3.9609,-3.967,-3.9675,-3.9601,-3.96,-3.96,0,-3.9478,-3.9508,-3.9536,-3.9543,-3.9554,-3.9567,-3.9573,-3.9582,-3.9592,-3.9604,-3.9611,-3.9626,-3.9634,-3.9645,-3.9642,-3.9627,-3.9672,-3.9651,-3.9671,-3.9671,-3.968,-3.9679,-3.9741,-3.9688,-3.9688,-3.9688,-3.9688,0,-3.9529,-3.9554,-3.9553,-3.957,-3.9598,-3.9594,-3.9621,-3.9625,-3.9632,-3.9649,-3.964,-3.9655,-3.9651,-3.9666,-3.9664,-3.9688,-3.9692,-3.9691,-3.969,-3.9691,-3.9691,-3.9695,-3.9692,-3.9689,-3.9689,-3.9689,-3.9688,0,-3.9576,-3.9577,-3.9607,-3.9616,-3.9618,-3.9638,-3.9644,-3.966,-3.9661,-3.9682,-3.9686,-3.9688,-3.9705,-3.9703,-3.9722,-3.9721,-3.975,-3.9746,-3.9747,-3.9745,-3.9764,-3.9762,-3.983,-3.9838,-3.9781,-3.9782,-3.9782,0,-3.9608,-3.9627,-3.9638,-3.9648,-3.9654,-3.9672,-3.9682,-3.9679,-3.969,-3.9702,-3.9716,-3.9732,-3.9745,-3.9772,-3.9774,-3.9789,-3.9784,-3.9807,-3.9786,-3.9786,-3.9782,-3.978,-3.9781,-3.9811,-3.9811,-3.9812,-3.9812,0,-3.9663,-3.9662,-3.9678,-3.9693,-3.9706,-3.9718,-3.9729,-3.9738,-3.9736,-3.9748,-3.9766,-3.9776,-3.9795,-3.9811,-3.9824,-3.9828,-3.9819,-3.9819,-3.9824,-3.9824,-3.9823,-3.9822,-3.9756,-3.9817,-3.9817,-3.9816,-3.9816,-3.9816,-3.9702,-3.9718,-3.9728,-3.9745,-3.9753,-3.9763,-3.9777,-3.978,-3.9795,-3.9811,-3.9808,-3.9827,-3.9835,-3.9852,-3.9858,-3.9872,-3.9864,-3.9871,-3.9873,-3.9874,-3.9876,-3.9822,-3.9875,-3.9875,-3.9875,-3.9874,-3.9874,0,-3.9755,-3.9761,-3.9777,-3.9792,-3.9805,-3.9797,-3.9808,-3.9819,-3.9837,-3.9845,-3.9858,-3.9877,-3.9893,-3.9896,-3.991,-3.992,-3.9916,-3.9924,-3.9922,-3.9923,-3.9883,-3.9877,-3.9927,-3.9927,-3.9927,-3.9927,-3.9927,-3.9927,-3.9784,-3.981,-3.981,-3.9839,-3.9844,-3.9863,-3.987,-3.9879,-3.9886,-3.9908,-3.992,-3.9923,-3.9929,-3.9943,-3.9956,-3.9956,-3.9961,-3.997,-3.9968,-3.9931,-3.9926,-3.9921,-3.9915,-3.9971,-3.9971,-4.0006,-4.0007,-4.0007]}]]